Tracking 29040 objects as of 15-Jun-2024
HD Live streaming from Space Station
objects crossing your sky now

EXPLORER 22

Track EXPLORER 22 now!
10-day predictions
EXPLORER 22 is classified as:


NORAD ID: 899
Int'l Code: 1964-064A
Perigee: 874.7 km
Apogee: 1,048.9 km
Inclination: 79.7 °
Period: 104.2 minutes
Semi major axis: 7332 km
RCS: 1.5662 m2 (large)
Launch date: October 10, 1964
Source: United States (US)
Launch site: AIR FORCE WESTERN TEST RANGE (AFWTR)
Your satellite tracking list
Your tracking list is empty




NASA's NSSDC Master Catalog

Two Line Element Set (TLE):
1 00899U 64064A   24166.83841001  .00000206  00000-0  17547-3 0  9995
2 00899  79.6898 208.1897 0118767 288.4115  70.4152 13.82614725  3752
Source of the keplerian elements: AFSPC